This is the latest recevied weather packets stored in our database for station/object N1JOV-7. If no packets are shown the sender has not sent any weather packets the latest 10 day(s).
| Time | Temp. | Humidity | Pressure | Rain* | Wind** | Luminosity | Snow |
|---|---|---|---|---|---|---|---|
| 1787839861 | 24.44° C | 79% | 1018.5 hPa | 0 mm | - | - | - |
| 1787839261 | 23.33° C | 81% | 1018.6 hPa | 0 mm | - | - | - |
| 1787838661 | 23.89° C | 81% | 1018.7 hPa | 0 mm | - | - | - |
| 1787838061 | 23.89° C | 82% | 1018.8 hPa | 0 mm | - | - | - |
| 1787837461 | 23.33° C | 84% | 1018.6 hPa | 0 mm | - | - | - |
| 1787836862 | 23.33° C | 86% | 1018.6 hPa | 0 mm | - | - | - |
| 1787836262 | 22.22° C | 88% | 1018.8 hPa | 0 mm | - | - | - |
| 1787835662 | 22.22° C | 91% | 1018.6 hPa | 0 mm | - | - | - |
| 1787835062 | 21.67° C | 94% | 1018.7 hPa | 0 mm | - | - | - |
| 1787834462 | 21.11° C | 96% | 1018.6 hPa | 0 mm | - | - | - |
| 1787833862 | 19.44° C | 99% | 1018.7 hPa | 0 mm | - | - | - |
| 1787833261 | 19.44° C | 99% | 1018.5 hPa | 0 mm | - | - | - |
| 1787832661 | 17.78° C | 99% | 1018.8 hPa | 0 mm | - | - | - |
| 1787832064 | 17.22° C | 99% | 1018.7 hPa | 0 mm | - | - | - |
| 1787831461 | 17.22° C | 99% | 1018.5 hPa | 0 mm | - | - | - |
| 1787830861 | 16.67° C | 99% | 1018.8 hPa | 0 mm | - | - | - |
| 1787830261 | 16.11° C | 99% | 1018.8 hPa | 0 mm | - | - | - |
| 1787829662 | 16.11° C | 99% | 1018.7 hPa | 0 mm | - | - | - |
| 1787829062 | 15.56° C | 99% | 1018.5 hPa | 0 mm | - | - | - |
| 1787828462 | 15° C | 99% | 1018.6 hPa | 0 mm | - | - | - |
| 1787827862 | 15° C | 99% | 1018.6 hPa | 0 mm | - | - | - |
| 1787827262 | 14.44° C | 99% | 1018.6 hPa | 0 mm | - | - | - |
| 1787826662 | 14.44° C | 99% | 1018.5 hPa | 0 mm | - | - | - |
| 1787826061 | 14.44° C | 99% | 1018.6 hPa | 0 mm | - | - | - |
| 1787825461 | 14.44° C | 99% | 1018.7 hPa | 0 mm | - | - | - |
* Rain latest hour (hover to see other rain measurements)
** Current wind speed in m/s (hover to see current wind gust speed)